This is the latest recevied weather packets stored in our database for station/object 9W2RUT-G. If no packets are shown the sender has not sent any weather packets the latest 10 day(s).
| Time | Temp. | Humidity | Pressure | Rain* | Wind** | Luminosity | Snow |
|---|---|---|---|---|---|---|---|
| 1777298446 | 29.44° C | 28% | 1013 hPa | - | - | - | - |
| 1777297546 | 29.44° C | 29% | 1012.7 hPa | - | - | - | - |
| 1777296646 | 29.44° C | 30% | 1012.9 hPa | - | - | - | - |
| 1777295746 | 29.44° C | 26% | 1012.5 hPa | - | - | - | - |
| 1777294845 | 30° C | 26% | 1012.4 hPa | - | - | - | - |
| 1777293944 | 30.56° C | 27% | 1012.2 hPa | - | - | - | - |
| 1777293044 | 30.56° C | 32% | 1012 hPa | - | - | - | - |
| 1777292143 | 30.56° C | 32% | 1011.8 hPa | - | - | - | - |
| 1777291243 | 30.56° C | 32% | 1011.9 hPa | - | - | - | - |
| 1777290392 | 31.11° C | 32% | 1011.6 hPa | - | - | - | - |
| 1777290343 | 31.11° C | 32% | 1011.6 hPa | - | - | - | - |
| 1777289442 | 30.56° C | 33% | 1011.6 hPa | - | - | - | - |
| 1777288542 | 30.56° C | 33% | 1010.5 hPa | - | - | - | - |
| 1777287642 | 30° C | 34% | 1010.6 hPa | - | - | - | - |
| 1777286741 | 29.44° C | 27% | 1010.5 hPa | - | - | - | - |
| 1777285841 | 30° C | 26% | 1010.2 hPa | - | - | - | - |
| 1777284940 | 30.56° C | 26% | 1010.6 hPa | - | - | - | - |
| 1777284040 | 31.11° C | 26% | 1009.9 hPa | - | - | - | - |
| 1777283140 | 31.67° C | 26% | 1009.8 hPa | - | - | - | - |
| 1777282238 | 32.78° C | 25% | 1009.6 hPa | - | - | - | - |
| 1777281371 | 33.33° C | 26% | 1009.6 hPa | - | - | - | - |
| 1777281338 | 33.33° C | 26% | 1009.6 hPa | - | - | - | - |
| 1777280438 | 34.44° C | 27% | 1009.6 hPa | - | - | - | - |
| 1777279612 | 35.56° C | 27% | 1009.4 hPa | - | - | - | - |
| 1777279537 | 35.56° C | 27% | 1009.4 hPa | - | - | - | - |
* Rain since midnight (hover to see other rain measurements)
** Current wind speed in m/s (hover to see current wind gust speed)